Airfield :
LOGIN :

Register | Disclaimer

   EN    FR    IT 

 










Legend :    VFR   Marginal VFR   IFR   Intensive IFR   Very Intensive IFR
Visi :
Ceiling :
>= 8 km
>= 3000ft
5 to 8 km
1000 to 3000 ft
1500m to 5 km
500 to 1000 ft
800 to 1500m
200 to 500 ft
< 800m
< 200 ft
Symbols :   Thunderstorms  Fog  Heavy snow  Heavy precipitations  Wind > 20 kt
SIGMETs :     Misc.  Thunderstorms  Icing  Turbulence  Mountain Waves  Volcanic Ashes






- Airport Elevation : 123 ft
- IATA code : BLQ


LIPE - Bologna Guglielmo Marconi

CURRENT METAR :
  • 161150Z 35004KT 260V050 CAVOK 18/06 Q1019

EXPIRED METARs :
  • 161120Z 29005KT 240V360 CAVOK 17/07 Q1019
  • 161050Z 28006KT 250V330 CAVOK 17/07 Q1019
  • 161020Z 28007KT 240V320 CAVOK 16/07 Q1019
  • 160950Z 30006KT 260V360 CAVOK 15/07 Q1019
  • 160920Z 29006KT 240V320 CAVOK 15/06 Q1019

TAF TAF LIPE
Valid from the 16 at 12:00 until the 17 at 12:00 UTC


161100Z 1612/1712 VRB05KT CAVOK



MET'MAP, your aeronautical weather chart ! - Copyright ORBIFLY December 2007 - Disclaimer

ORBIFLY MET'MAP TEAM :

Programming & Development : Alexandra Zaïnal
Concept & original design : Baudouin d'Aumeries
Assistance for programming : Marc-Olivier Méhu
Technical & hardware support : Manuel Goepfert

Contact : metmap@orbifly.com




SOURCES & CREDITS :

   NOAA